Hauptseite
METAR-TAF:

METAR-TAF

Flughäfen :

Celle, Deutschland

Heeresflugplatz Celle

Breite: 52-36N, Länge: 010-01E, Höhe: 39 m

Beobachtung

Neuester Wetterbericht von vor 55 Minuten, um 17:20 UTC
Wind 7 kt aus Ost/Südost
Temperatur 24°C
Luftfeuchtigkeit 47%
Luftdruck 1009 hPa
Sichtweite 10 km oder mehr
Leicht bewölkt in der Höhe von 12000 ft
Durchbrochene Bewölkung in der Höhe von 23000 ft

METAR: ETHC 221720Z 11007KT 9999 FEW120 BKN230 24/12 Q1009 BLU+

Zeit: 20:15 (18:15 UTC)


TAF: fehlend

Wetterbeobachtungen und Prognosen von mehr als 4000 Flughäfen (METAR und TAF Bericht).

Die verfügbaren Stationen werden durch gelbe und rote Markierungen auf der Karte dargestellt.

Führen Sie die Maus auf sie, um den Namen der Station zu sehen.

Darauf klicken, um die Beobachtung von Wetterbeobachtungen und Prognosen zu sehen.

Um die Karte zu ändern : klicken Sie auf den grünen Tasten mit einem schwarzen Kreuz Zum Vergrößern, auf den grünen Button mit einem Gedankenstrich zu verkleinern, oder auf die grünen Pfeile für benachbarte Karten.


METAR-TAF: